Location: George Washington National Forest Helicopter Landing Site
(38.6463°N, 79.0851°W)
Time: 09:19:07
(UTC-04:00)

Vanguard 2 - Visible Passes

Search period start: 23 August 2019 00:00
Search period end: 02 September 2019 00:00
Orbit: 554 x 2938 km, 32.9° (Epoch: 22 August)

Date Brightness Start Highest point End Pass type
(mag) Time Alt. Az. Time Alt. Az. Time Alt. Az.
23 Aug 11.4 20:19:17 10° W 20:29:26 26° SSW 20:42:07 10° SSE visible
24 Aug 11.6 20:38:42 10° WSW 20:47:22 19° SW 20:57:41 10° S visible
25 Aug 11.8 20:59:36 10° WSW 21:05:19 13° SW 21:11:40 10° SSW visible
